Tracking 19192 objects as of 19-Jun-2018
HD Live streaming from Space Station
objects crossing your sky now

FENGYUN 1C DEB

Track FENGYUN 1C DEB now!
10-day predictions


NORAD ID: 30665
Int'l Code: 1999-025APX
Perigee: 840.9 km
Apogee: 964.0 km
Inclination: 99.0 °
Period: 102.9 minutes
Semi major axis: 7273 km
RCS: 0.026 m2 (small)
Launch date: May 10, 1999
Source: People's Republic of China (PRC)
Launch site: Taiyaun Space Center, China (TSC)

Note: This is SATELLITE DEBRIS
aabbcc
Your satellite tracking list
Your tracking list is empty




NASA's NSSDC Master Catalog

Two Line Element Set (TLE):
1 30665U 99025APX 18169.27523892 +.00000501 +00000-0 +36254-3 0  9997
2 30665 099.0464 098.0797 0084603 200.4584 313.2791 13.99562142576239
Source of the keplerian elements: AFSPC